When you browse on this site, cookies collect data to enhance your experience and personalize the content and advertising you see.
Visit our Privacy Policy to learn more. By continuing to use the site, you agree to this use of cookies and data.
  • In Czech Republic
  • List of Countries
  • For 7 days
  • Water Temperature
  • Weather Map
  • Weather Widgets
  • user-avatar
    Login

    Hourly Weather Kaprun

    Today, 6 June, Saturday

    Time Temperature Precipitation Wind Pressure Humidity
    00:00 +3°C° 0 mm 1 mps 589 mmHg 94%
    01:00 +3°C° 0 mm 1 mps 589 mmHg 96%
    02:00 +3°C° 0 mm 1 mps 589 mmHg 95%
    03:00 +3°C° 0 mm 1 mps 589 mmHg 94%
    04:00 +2°C° 0 mm 2 mps 589 mmHg 94%
    05:00 +3°C° 0 mm 2 mps 590 mmHg 91%
    06:00 +5°C° 0 mm 2 mps 591 mmHg 88%
    07:00 +6°C° 0 mm 2 mps 592 mmHg 84%
    08:00 +8°C° 0 mm 2 mps 592 mmHg 77%
    09:00 +10°C° 0 mm 2 mps 593 mmHg 71%
    10:00 +12°C° 0 mm 2 mps 594 mmHg 64%
    11:00 +12°C° 0.4 mm 2 mps 594 mmHg 68%
    12:00 +12°C° 0.4 mm 2 mps 594 mmHg 71%
    13:00 +12°C° 0.4 mm 2 mps 594 mmHg 75%
    14:00 +10°C° 1.1 mm 2 mps 593 mmHg 81%
    15:00 +10°C° 1.1 mm 2 mps 593 mmHg 86%
    16:00 +9°C° 1.1 mm 2 mps 593 mmHg 92%
    17:00 +9°C° 0.8 mm 1 mps 592 mmHg 94%
    18:00 +8°C° 0.8 mm 1 mps 592 mmHg 96%
    19:00 +8°C° 0.8 mm 1 mps 592 mmHg 98%
    20:00 +7°C° 0.3 mm 1 mps 592 mmHg 98%
    21:00 +7°C° 0.3 mm 1 mps 592 mmHg 98%
    22:00 +5°C° 0.3 mm 0 mps 592 mmHg 99%
    23:00 +6°C° 0.1 mm 1 mps 592 mmHg 98%

    Tomorrow, 7 June, Sunday

    Time Temperature Precipitation Wind Pressure Humidity
    00:00 +6°C° 0.1 mm 1 mps 592 mmHg 98%
    01:00 +6°C° 0.1 mm 1 mps 592 mmHg 98%
    02:00 +6°C° 0 mm 1 mps 591 mmHg 97%
    03:00 +5°C° 0 mm 1 mps 591 mmHg 97%
    04:00 +5°C° 0 mm 1 mps 591 mmHg 96%
    05:00 +6°C° 0 mm 1 mps 591 mmHg 95%
    06:00 +7°C° 0 mm 1 mps 592 mmHg 94%
    07:00 +8°C° 0 mm 1 mps 592 mmHg 93%
    08:00 +8°C° 0.3 mm 1 mps 593 mmHg 92%
    09:00 +9°C° 0.3 mm 1 mps 593 mmHg 91%
    10:00 +8°C° 0.3 mm 2 mps 593 mmHg 91%
    11:00 +8°C° 0.8 mm 2 mps 593 mmHg 92%
    12:00 +7°C° 0.8 mm 2 mps 593 mmHg 92%
    13:00 +7°C° 0.8 mm 2 mps 593 mmHg 93%
    14:00 +6°C° 1.1 mm 2 mps 593 mmHg 95%
    15:00 +6°C° 1.1 mm 2 mps 592 mmHg 97%
    16:00 +5°C° 1.1 mm 2 mps 592 mmHg 98%
    17:00 +4°C° 2.4 mm 2 mps 592 mmHg 98%
    18:00 +3°C° 2.4 mm 2 mps 592 mmHg 98%
    19:00 +3°C° 2.4 mm 2 mps 592 mmHg 98%
    20:00 +2°C° 1.1 mm 2 mps 592 mmHg 98%
    21:00 +3°C° 1.1 mm 1 mps 592 mmHg 98%
    22:00 +3°C° 1.1 mm 1 mps 592 mmHg 98%
    23:00 +3°C° 0.4 mm 1 mps 592 mmHg 98%

    Day after tomorrow, 8 June, Monday

    Time Temperature Precipitation Wind Pressure Humidity
    00:00 +3°C° 0.4 mm 1 mps 592 mmHg 98%
    01:00 +3°C° 0.4 mm 1 mps 592 mmHg 98%
    02:00 +3°C° 0.3 mm 1 mps 592 mmHg 98%
    03:00 +3°C° 0.3 mm 1 mps 592 mmHg 98%
    04:00 +3°C° 0.3 mm 1 mps 592 mmHg 98%
    05:00 +3°C° 0.2 mm 1 mps 592 mmHg 98%
    06:00 +3°C° 0.2 mm 1 mps 592 mmHg 98%
    07:00 +4°C° 0.2 mm 1 mps 592 mmHg 98%
    08:00 +4°C° 0.2 mm 1 mps 593 mmHg 97%
    09:00 +4°C° 0.2 mm 1 mps 593 mmHg 97%
    10:00 +5°C° 0.2 mm 1 mps 593 mmHg 97%
    11:00 +5°C° 0.2 mm 1 mps 593 mmHg 95%
    12:00 +5°C° 0.2 mm 1 mps 594 mmHg 94%
    13:00 +6°C° 0.2 mm 1 mps 594 mmHg 93%
    14:00 +6°C° 0 mm 1 mps 594 mmHg 91%
    15:00 +7°C° 0 mm 1 mps 594 mmHg 90%
    16:00 +7°C° 0 mm 1 mps 594 mmHg 88%
    17:00 +7°C° 0.1 mm 1 mps 594 mmHg 90%
    18:00 +7°C° 0.1 mm 1 mps 594 mmHg 92%
    19:00 +6°C° 0.1 mm 1 mps 594 mmHg 94%
    20:00 +6°C° 0.2 mm 1 mps 594 mmHg 95%
    21:00 +6°C° 0.2 mm 1 mps 594 mmHg 97%
    22:00 +4°C° 0.2 mm 0 mps 594 mmHg 98%
    23:00 +4°C° 0.7 mm 0 mps 594 mmHg 98%

    9 June, Tuesday

    Time Temperature Precipitation Wind Pressure Humidity
    00:00 +4°C° 0.7 mm 0 mps 594 mmHg 98%
    01:00 +4°C° 0.7 mm 0 mps 594 mmHg 98%
    02:00 +4°C° 0.3 mm 0 mps 594 mmHg 98%
    03:00 +4°C° 0.3 mm 0 mps 594 mmHg 98%
    04:00 +4°C° 0.3 mm 0 mps 594 mmHg 98%
    05:00 +4°C° 0.5 mm 0 mps 594 mmHg 98%
    06:00 +4°C° 0.5 mm 0 mps 594 mmHg 97%
    07:00 +5°C° 0.5 mm 0 mps 594 mmHg 97%
    08:00 +5°C° 0.4 mm 0 mps 595 mmHg 96%
    09:00 +5°C° 0.4 mm 0 mps 595 mmHg 95%
    10:00 +7°C° 0.4 mm 1 mps 595 mmHg 95%
    11:00 +7°C° 0.7 mm 1 mps 595 mmHg 95%
    12:00 +7°C° 0.7 mm 1 mps 595 mmHg 96%
    13:00 +7°C° 0.7 mm 1 mps 595 mmHg 96%
    14:00 +7°C° 0.4 mm 1 mps 595 mmHg 96%
    15:00 +7°C° 0.4 mm 1 mps 595 mmHg 96%
    16:00 +6°C° 0.4 mm 0 mps 595 mmHg 96%
    17:00 +6°C° 0 mm 0 mps 595 mmHg 96%
    18:00 +6°C° 0 mm 0 mps 595 mmHg 96%
    19:00 +6°C° 0 mm 0 mps 595 mmHg 97%
    20:00 +5°C° 0 mm 0 mps 595 mmHg 97%
    21:00 +5°C° 0 mm 0 mps 595 mmHg 97%
    22:00 +4°C° 0 mm 0 mps 595 mmHg 97%
    23:00 +3°C° 0 mm 0 mps 594 mmHg 96%

    10 June, Wednesday

    Time Temperature Precipitation Wind Pressure Humidity
    00:00 +3°C° 0 mm 0 mps 594 mmHg 95%
    01:00 +3°C° 0 mm 0 mps 594 mmHg 95%
    02:00 +3°C° 0 mm 0 mps 593 mmHg 95%
    03:00 +2°C° 0 mm 0 mps 593 mmHg 94%
    04:00 +2°C° 0 mm 0 mps 593 mmHg 94%
    05:00 +3°C° 0.2 mm 0 mps 594 mmHg 94%
    06:00 +4°C° 0.2 mm 0 mps 594 mmHg 93%
    07:00 +5°C° 0.2 mm 0 mps 595 mmHg 93%
    08:00 +5°C° 0.9 mm 0 mps 595 mmHg 94%
    09:00 +5°C° 0.9 mm 0 mps 595 mmHg 94%
    10:00 +7°C° 0.9 mm 1 mps 595 mmHg 95%
    11:00 +6°C° 1.6 mm 0 mps 595 mmHg 95%
    12:00 +6°C° 1.6 mm 0 mps 595 mmHg 95%
    13:00 +6°C° 1.6 mm 0 mps 595 mmHg 94%
    14:00 +6°C° 0.4 mm 0 mps 596 mmHg 93%
    15:00 +7°C° 0.4 mm 1 mps 596 mmHg 92%
    16:00 +8°C° 0.4 mm 1 mps 596 mmHg 91%
    17:00 +7°C° 0 mm 1 mps 596 mmHg 93%
    18:00 +7°C° 0 mm 1 mps 596 mmHg 94%
    19:00 +7°C° 0 mm 1 mps 596 mmHg 95%
    20:00 +6°C° 0 mm 1 mps 596 mmHg 96%
    21:00 +5°C° 0 mm 1 mps 595 mmHg 97%
    22:00 +4°C° 0 mm 1 mps 595 mmHg 98%
    23:00 +4°C° 0.1 mm 1 mps 595 mmHg 97%

    11 June, Thursday

    Time Temperature Precipitation Wind Pressure Humidity
    00:00 +4°C° 0.1 mm 1 mps 595 mmHg 97%
    01:00 +4°C° 0.1 mm 1 mps 595 mmHg 97%
    02:00 +5°C° 0.3 mm 1 mps 595 mmHg 97%
    03:00 +5°C° 0.3 mm 1 mps 595 mmHg 97%
    04:00 +5°C° 0.3 mm 1 mps 595 mmHg 97%
    05:00 +5°C° 0.9 mm 1 mps 595 mmHg 97%
    06:00 +5°C° 0.9 mm 1 mps 595 mmHg 98%
    07:00 +6°C° 0.9 mm 1 mps 595 mmHg 98%
    08:00 +6°C° 1.1 mm 1 mps 595 mmHg 98%
    09:00 +6°C° 1.1 mm 1 mps 595 mmHg 98%
    10:00 +6°C° 1.1 mm 1 mps 596 mmHg 98%
    11:00 +6°C° 1 mm 1 mps 595 mmHg 98%
    12:00 +6°C° 1 mm 1 mps 595 mmHg 98%
    13:00 +5°C° 1 mm 1 mps 595 mmHg 98%
    14:00 +5°C° 0.6 mm 1 mps 595 mmHg 97%
    15:00 +5°C° 0.6 mm 1 mps 595 mmHg 97%
    16:00 +5°C° 0.6 mm 1 mps 595 mmHg 97%
    17:00 +5°C° 0.2 mm 1 mps 595 mmHg 98%
    18:00 +5°C° 0.2 mm 1 mps 595 mmHg 98%
    19:00 +5°C° 0.2 mm 1 mps 595 mmHg 98%
    20:00 +5°C° 0.1 mm 1 mps 595 mmHg 98%
    21:00 +4°C° 0.1 mm 0 mps 595 mmHg 98%
    22:00 +4°C° 0.1 mm 0 mps 595 mmHg 98%
    23:00 +4°C° 0 mm 0 mps 594 mmHg 98%
    Show more